Truckee-Tahoe, CA

9:12 AM PDT on July 21, 2017 (GMT -0700)
Truckee-Tahoe

Weather History for KTRK - March, 2013

Change the Weather History Date:

Wednesday, March 6, 2013

  Actual Average Record
Temperature  
Mean Temperature 26 °F -  
Max Temperature 32 °F 45 °F 65 °F (1972)
Min Temperature 19 °F 19 °F -4 °F (1956)
Degree Days  
Heating Degree Days 40    
Moisture  
Dew Point 22 °F    
Average Humidity 77    
Maximum Humidity 93    
Minimum Humidity 55    
Precipitation  
Precipitation 0.04 in - - ()
Snow  
Snow 0.00 in - - ()
Snow Depth 1.00 in    
Sea Level Pressure  
Sea Level Pressure 29.86 in    
Wind  
Wind Speed 18 mph (SSW)    
Max Wind Speed 36 mph    
Max Gust Speed 51 mph    
Visibility 5 miles    
Events Snow    
Averages and records for this station are not official NWS values.
T = Trace of Precipitation, MM = Missing Value Source: NWS Daily Summary

Daily Weather History Graph

Daily Weather History Graph

Search for Another Location

Airport or City:

Trip Planner

Search our weather history database for the weather conditions in past years. The results will help you decide how hot, cold, wet, or windy it might be!

Date:

Astronomy

Mar. 06, 2013 Rise Set
Actual Time 6:25 AM PST 5:58 PM PST
Civil Twilight 5:58 AM PST 6:25 PM PST
Nautical Twilight 5:27 AM PST 6:56 PM PST
Astronomical Twilight 4:56 AM PST 7:27 PM PST
Moon 2:37 AM PST (3/6) 12:47 PM PST (3/6)
Length of Visible Light 12h 26m
Length of Day
11h 33m
Waning Crescent, 29% of the Moon is Illuminated
Mar 6
Waning Crescent
Mar 11
New
Mar 19
First Quarter
Mar 27
Full
Apr 2
Last Quarter

Hourly Weather History & Observations

Time (PST) Temp. Windchill Dew Point Humidity Pressure Visibility Wind Dir Wind Speed Gust Speed Precip Events Conditions
12:15 AM 32.0 °F 16.5 °F 28.4 °F 87% 29.77 in 0.8 mi SW 35.7 mph 46.0 mph N/A Snow Light Snow
12:35 AM 32.0 °F 16.5 °F 26.6 °F 80% 29.76 in 2.0 mi SSW 35.7 mph 50.6 mph N/A Snow Light Snow
12:55 AM 32.0 °F 18.6 °F 26.6 °F 80% 29.76 in 1.5 mi SSW 25.3 mph 48.3 mph N/A Snow Light Snow
1:15 AM 32.0 °F 18.4 °F 26.6 °F 80% 29.76 in 1.0 mi SSW 26.5 mph 34.5 mph N/A Snow Light Snow
1:35 AM 32.0 °F 21.2 °F 26.6 °F 80% 29.77 in 0.8 mi South 16.1 mph 28.8 mph N/A Snow Light Snow
1:55 AM 30.2 °F 21.3 °F 28.4 °F 93% 29.77 in 0.5 mi SSW 10.4 mph - N/A Snow Snow
2:15 AM 30.2 °F 18.9 °F 28.4 °F 93% 29.76 in 1.0 mi South 16.1 mph - 0.01 in Snow Light Snow
2:35 AM 32.0 °F 20.8 °F 28.4 °F 87% 29.76 in 1.0 mi SSW 17.3 mph 32.2 mph 0.01 in Snow Light Snow
2:55 AM 32.0 °F 20.8 °F 28.4 °F 87% 29.74 in 0.8 mi South 17.3 mph 26.5 mph 0.02 in Snow Light Snow
3:15 AM 32.0 °F 18.9 °F 24.8 °F 75% 29.72 in 8.0 mi SSW 24.2 mph 34.5 mph N/A Snow Light Snow
3:35 AM 32.0 °F 19.2 °F 26.6 °F 80% 29.73 in 1.2 mi SSW 23.0 mph 42.6 mph 0.01 in Snow Light Snow
3:55 AM 32.0 °F 20.5 °F 26.6 °F 80% 29.74 in 0.8 mi SSW 18.4 mph 26.5 mph 0.01 in Snow Light Snow
4:15 AM 32.0 °F 21.2 °F 28.4 °F 87% 29.74 in 0.8 mi South 16.1 mph 27.6 mph N/A Snow Light Snow
4:35 AM 32.0 °F 20.8 °F 28.4 °F 87% 29.75 in 0.8 mi SSW 17.3 mph 32.2 mph N/A Snow Light Snow
4:55 AM 32.0 °F 19.5 °F 24.8 °F 75% 29.74 in 3.0 mi SSW 21.9 mph 33.4 mph 0.01 in Snow Light Snow
5:15 AM 32.0 °F 21.2 °F 24.8 °F 75% 29.74 in 4.0 mi SSW 16.1 mph 32.2 mph N/A Snow Light Snow
5:35 AM 32.0 °F 20.8 °F 26.6 °F 80% 29.73 in 0.8 mi SSW 17.3 mph 26.5 mph N/A Snow Light Snow
6:45 AM 28.4 °F 17.5 °F 26.6 °F 93% 29.77 in 0.2 mi SSW 13.8 mph 25.3 mph N/A Snow Light Snow
7:45 AM 28.4 °F 18.0 °F 24.8 °F 86% 29.80 in 0.2 mi SW 12.7 mph - N/A Snow Heavy Snow
8:50 AM 26.6 °F 13.4 °F 19.4 °F 74% 29.86 in 0.5 mi SW 18.4 mph 27.6 mph N/A Snow Snow
9:50 AM 28.4 °F 16.2 °F 19.4 °F 69% 29.87 in 2.0 mi SSW 17.3 mph 28.8 mph N/A Snow Light Snow
10:55 AM 28.4 °F 19.1 °F 23.0 °F 80% 29.91 in 3.0 mi South 10.4 mph - N/A Snow Light Snow
11:55 AM 30.2 °F 18.1 °F 15.8 °F 55% 29.91 in 5.0 mi SW 18.4 mph 26.5 mph N/A Snow Light Snow
12:45 PM 26.6 °F 16.8 °F 23.0 °F 86% 29.93 in 0.2 mi SW 10.4 mph 18.4 mph N/A Snow Heavy Snow
2:50 PM 28.4 °F 24.6 °F 23.0 °F 80% 29.94 in 3.0 mi South 3.5 mph - N/A Snow Light Snow
2:55 PM 28.4 °F 17.0 °F 19.4 °F 69% 29.93 in 2.0 mi SW 15.0 mph 26.5 mph N/A Snow Light Snow
4:55 PM 28.4 °F 18.0 °F 15.8 °F 59% 29.95 in 10.0 mi SSW 12.7 mph 17.3 mph N/A   Mostly Cloudy
5:15 PM 28.4 °F 19.1 °F 17.6 °F 64% 29.94 in 10.0 mi SW 10.4 mph - N/A   Overcast
5:35 PM 26.6 °F 13.8 °F 23.0 °F 86% 29.93 in 1.8 mi SW 17.3 mph - N/A Snow Light Snow
5:55 PM 26.6 °F 16.2 °F 17.6 °F 69% 29.93 in 10.0 mi SW 11.5 mph 21.9 mph N/A   Scattered Clouds
6:15 PM 26.6 °F 18.2 °F 17.6 °F 69% 29.94 in 10.0 mi South 8.1 mph - N/A   Scattered Clouds
6:35 PM 28.4 °F 20.4 °F 17.6 °F 64% 29.94 in 10.0 mi SSW 8.1 mph - N/A   Overcast
6:55 PM 28.4 °F 19.1 °F 17.6 °F 64% 29.93 in 10.0 mi SSW 10.4 mph - N/A   Overcast
7:15 PM 28.4 °F 21.2 °F 19.4 °F 69% 29.93 in 10.0 mi SSW 6.9 mph - N/A   Overcast
7:35 PM 28.4 °F 23.3 °F 19.4 °F 69% 29.93 in 10.0 mi WSW 4.6 mph - N/A   Mostly Cloudy
7:55 PM 28.4 °F 23.3 °F 19.4 °F 69% 29.92 in 10.0 mi SE 4.6 mph - N/A   Mostly Cloudy
8:15 PM 26.6 °F 20.0 °F 19.4 °F 74% 29.92 in 10.0 mi WSW 5.8 mph - N/A   Overcast
8:35 PM 26.6 °F 21.2 °F 17.6 °F 69% 29.93 in 10.0 mi SW 4.6 mph - N/A   Scattered Clouds
8:55 PM 26.6 °F - 17.6 °F 69% 29.94 in 10.0 mi Calm Calm - N/A   Mostly Cloudy
9:15 PM 24.8 °F 20.5 °F 15.8 °F 69% 29.94 in 10.0 mi SSW 3.5 mph - N/A   Mostly Cloudy
9:35 PM 24.8 °F 20.5 °F 15.8 °F 69% 29.94 in 10.0 mi ESE 3.5 mph - N/A   Partly Cloudy
9:55 PM 24.8 °F 20.5 °F 15.8 °F 69% 29.95 in 10.0 mi SSW 3.5 mph - N/A   Partly Cloudy
10:15 PM 19.4 °F 11.5 °F 14.0 °F 80% 29.94 in 10.0 mi West 5.8 mph - N/A   Clear
10:35 PM 19.4 °F 11.5 °F 14.0 °F 80% 29.95 in 10.0 mi NE 5.8 mph - N/A   Partly Cloudy
10:55 PM 21.2 °F 14.9 °F 17.6 °F 86% 29.94 in 10.0 mi North 4.6 mph - N/A   Mostly Cloudy
11:15 PM 19.4 °F 14.3 °F 15.8 °F 86% 29.93 in 10.0 mi NW 3.5 mph - N/A   Overcast
11:35 PM 19.4 °F - 15.8 °F 86% 29.93 in 10.0 mi Calm Calm - N/A   Mostly Cloudy
11:55 PM 19.4 °F 14.3 °F 15.8 °F 86% 29.93 in 10.0 mi SE 3.5 mph - N/A   Overcast